STARLINK-4134 (53254 NORAD) Tracking and Keplerian Element Data

This shows tracking and keplerian element data for the satellite.

Feedback or suggestion? Click here.




ElementValue
Catalog53254
NameSTARLINK-4134
Epoch Orbit130
Epoch Day269.91667824
Epoch Year2022
RAAN89.637
Inclination53.2172
Eccentricity0.0001691
Argument of Perigee41.9965
Mean Anonmoly49.7959
Mean Motion15.18575762
Decay Rate-0.01080947
L11 53254U 22086N 22269.91667824 -.01080947 00000+0 -55757-1 0 9991
L22 53254 53.2172 89.6370 0001691 41.9965 49.7959 15.18575762 1309

Live tracking and technical data element details for STARLINK-4134 (NORAD 53254). STARLINK-4134 can be tracked NOW for your location showing map with azimuth and elevation plus other details from your city location.

Track the satellite on the map from your city or location and see movement details for azimuth, elevation, latitude, longitude, range, height, and movement on the map or in text.







IsCatalogInMostPopularTable: catalog: 53254, numindb: 3
Update: records affected: 1



GetName: 53254 STARLINK-4134

Hit Count: updated at: Wed, 05 Oct 2022 07:59:32 GMT